Weather History for McGregor Range Base Camp, NM, NM

Change the Weather History Date:

Thursday, April 3, 2014

  Actual Average Record
Temperature  
Mean Temperature 54 °F -  
Max Temperature 64 °F - - ()
Min Temperature 46 °F - - ()
Degree Days  
Heating Degree Days 10    
Growing Degree Days 4 (Base 50)    
Moisture  
Dew Point 9 °F    
Average Humidity 17    
Maximum Humidity 34    
Minimum Humidity 8    
Precipitation  
Precipitation 0.00 in - - ()
Sea Level Pressure  
Sea Level Pressure 29.82 in    
Wind  
Wind Speed 19 mph (SW)    
Max Wind Speed 30 mph    
Max Gust Speed 43 mph    
Visibility 12 miles    
Events      
T = Trace of Precipitation, MM = Missing Value Source: NWS Daily Summary

Daily Weather History Graph

Daily Weather History Graph

Search for Another Location

Airport:

Trip Planner

Search our weather history database for the weather conditions in past years. The results will help you decide how hot, cold, wet, or windy it might be!

Date:

Astronomy

Apr. 03, 2014 Rise Set
Actual Time 6:50 AM MDT 7:25 PM MDT
Civil Twilight 6:25 AM MDT 7:50 PM MDT
Nautical Twilight 5:56 AM MDT 8:19 PM MDT
Astronomical Twilight 5:27 AM MDT 8:49 PM MDT
Moon 9:33 AM MDT (4/3) 11:35 PM MDT (4/3)
Length of Visible Light 13h 24m
Length of Day
12h 35m
Waxing Crescent, 18% of the Moon is Illuminated
Apr 3
Waxing Crescent
Apr 7
First Quarter
Apr 15
Full
Apr 22
Last Quarter
Apr 29
New

Hourly Weather History & Observations

Time (MDT) Temp. Windchill Dew Point Humidity Pressure Visibility Wind Dir Wind Speed Gust Speed Precip Events Conditions
12:56 AM 62.2 °F - 8.6 °F 12% 29.60 in 11.0 mi South 26.5 mph 38.0 mph N/A   Clear
1:57 AM 54.9 °F - 21.4 °F 27% 29.66 in 12.0 mi SW 17.3 mph 27.6 mph N/A   Partly Cloudy
2:56 AM 52.9 °F - 20.8 °F 29% 29.67 in 12.0 mi SW 16.1 mph 25.3 mph N/A   Clear
3:56 AM 50.7 °F - 19.8 °F 30% 29.69 in 12.0 mi SSW 8.1 mph - N/A   Clear
4:56 AM 50.0 °F - 19.0 °F 29% 29.85 in 12.0 mi SE 6.9 mph - N/A   Clear
6:57 AM 46.2 °F 40.8 °F 19.4 °F 34% 29.77 in 12.0 mi SW 11.5 mph - N/A   Clear
8:56 AM 50.9 °F - 17.6 °F 27% 29.78 in 12.0 mi SW 28.8 mph 42.6 mph N/A   Clear
9:56 AM 52.0 °F - 17.4 °F 26% 29.81 in 12.0 mi SW 28.8 mph 39.1 mph N/A   Clear
10:56 AM 54.3 °F - 11.8 °F 18% 29.82 in 12.0 mi SW 28.8 mph 40.3 mph N/A   Partly Cloudy
11:56 AM 56.1 °F - 3.0 °F 12% 29.84 in 12.0 mi SSW 23.0 mph 36.8 mph N/A   Clear
12:56 PM 58.3 °F - 4.3 °F 11% 29.81 in 12.0 mi SSW 23.0 mph 32.2 mph N/A   Partly Cloudy
1:56 PM 60.8 °F - 2.5 °F 10% 29.83 in 12.0 mi SW 24.2 mph 36.8 mph N/A   Clear
2:56 PM 62.2 °F - -0.2 °F 8% 29.93 in 12.0 mi SW 24.2 mph 40.3 mph N/A   Clear
3:56 PM 63.3 °F - 2.3 °F 9% 29.78 in 12.0 mi SSW 29.9 mph 36.8 mph N/A   Clear
4:56 PM 63.7 °F - 2.5 °F 9% 29.81 in 12.0 mi SSW 23.0 mph 31.1 mph N/A   Clear
5:56 PM 63.5 °F - 1.2 °F 8% 29.83 in 12.0 mi SW 15.0 mph 23.0 mph N/A   Clear
6:56 PM 63.0 °F - 1.0 °F 8% 29.85 in 12.0 mi West 13.8 mph 20.7 mph N/A   Clear
7:56 PM 59.0 °F - 0.1 °F 9% 29.87 in 12.0 mi West 10.4 mph - N/A   Clear
9:56 PM 52.0 °F - -0.4 °F 12% 30.04 in 12.0 mi West 10.4 mph - N/A   Clear
10:56 PM 54.1 °F - 3.4 °F 13% 29.96 in 12.0 mi NNW 10.4 mph - N/A   Clear
11:56 PM 52.7 °F - 3.6 °F 14% 30.08 in 12.0 mi WNW 6.9 mph - N/A   Clear